Showing default

SKYSAT C2, 41773

Orbit data source: Space-Track

SKYSAT C2, 41773 is a payload satellite owned by Terra Bella (US) in SSO that was launched on Fri, 16 Sep 2016 UTC via a VEGA launch vehicle from the French Guiana (FRGUI). Payload-class satellites include a variety of spacecraft equipped with specific instruments for various scientific and technological missions. These include communications satellites like Starlink; space stations such as the ISS; scientific satellites like the Hubble; Earth observation satellites from companies like Planet Labs, Umbra, and HawkEye 360; GPS; miniature CubeSats for education and research; and military/defense satellites.

Loading next visibility...
Identifier
41773, 2016-058D
Orbit
SSO
Country
Flag of USUS
Related business
Manufacturer
SS/Loral (MDA)
Mission
Operational Commercial Imaging
Bus & Motor
SKYSAT-GEN2, Unknown motor
Mass
110 kg wet, 110 kg dry
Launch date (UTC)
2016-09-16 (9 years ago)
Launch vehicle
VEGA
Launch site
French Guiana (FRGUI)
Object type
Payload
Rocket body
Debris
Shape & HBR
Box, 1.0 m
Radar Cross Section
0.888 m², Medium (>0.1 m² and < 1m²)

Expand to show TLE details & history
Last TLE update: 8 hours ago

TLE from 8 hours ago
0 SKYSAT C2
1 41773U 16058D   25351.62807809  .00009604  00000-0  26411-3 0  9994
2 41773  97.0356  15.9481 0003712  21.9124 338.2280 15.37380675517110
Epoch: 2025-12-17T15:04Z
TLE epoch observation values (Epoch: 2025-12-17T15:04:25.946Z)
Latitude
-0.00002°
Longitude
63.34478°
Altitude
454.627 km
Speed
7.641 km/s
True Right ascension
01h 03m 47s
True Declination
0° 00' 00"
Sunlit
Object was in daylight at epoch
Visualization orbit readout
Latitude
Unknown
Longitude
Unknown
Altitude
Unknown
Speed
Unknown
Apparent Right ascension
Unknown
Apparent Declination
Unknown
Sunlit
N/A
Visualization observer readout
Local Sidereal Time
22:06:13
Azimuth
Unknown
Elevation
Unknown
Doppler factor
Unknown
Orbital elements
Apogee altitude
453.32 km
Perigee altitude
448.251 km
Semi-major axis
6,828.922 km
Eccentricity
0.00037
Inclination
97.0356°
RAAN
15.9481°
Arg. of periapsis
21.9124°
True anomaly
338.21222°
Mean anomaly
338.228°
Eccentric anomaly
338.22011°
Mean motion
3.84605 °/min
Orbital period
93.6 mins
BSTAR
0.00026411
Loading maneuver chart data...
Computing Atmospheric mass density...
Loading historical data...
Loading historical data...
Loading historical data...
Loading historical data...
Loading historical data...
Loading historical data...
Loading historical data...

Documentation

Showing up to 5 results
|